7 * 24
多渠道服务支持
STARLINK-36830(NORAD编号68110)是SpaceX星链(Starlink)低轨互联网星座中的一颗卫星,属于星链星座的批量组网卫星之一,旨在为全球提供广覆盖、低延迟的高速卫星互联网服务,填补偏远地区、海洋、航空等场景的网络服务空白。星链星座整体计划部署超4万颗卫星,该卫星运行于近地轨道,依托Ku、Ka频段提供通信服务,截至2026年,星链星座已累计发射超1.1万颗卫星,该卫星是星链实现全球覆盖的重要组成部分,助力星座持续拓展服务能力。
美国
(US)
| 数据来源 | 国际轨道数据 |
| 星历时间: | 2026-05-25T04:25:48+0800 15小时前 查看轨道信息 |
| 半长轴: | 6843.762km |
| 偏心率: | 0.0001405 |
| 轨道倾角: | 97.284° |
| 近地点辐角 | 26.951° |
| 升交点赤经 | 105.462° |
| 平近点角 | 333.180° |
| 近地点: | 464.663km |
| 远地点: | 466.587km |
| 周期: | 93.908分钟 |
| 每日圈数: | 15.334175 |